Weather reports worldwide

Advertisment
Marrakech, Morocco (60230): temperature & dewpoint: 18.06.2018 15:00:00 - 24.06.2018 15:00:00 (WEST)Marrakech, Morocco (60230): wind speed: 18.06.2018 15:00:00 - 24.06.2018 15:00:00 (WEST)Marrakech, Morocco (60230): wind direction: 18.06.2018 15:00:00 - 24.06.2018 15:00:00 (WEST)Marrakech, Morocco (60230): reduced air pressure: 18.06.2018 15:00:00 - 24.06.2018 15:00:00 (WEST)Marrakech, Morocco (60230): visibility: 18.06.2018 15:00:00 - 24.06.2018 15:00:00 (WEST)
Date & Time tt [°C] td [°C] ff [km/h] ff [kn] dd ppp [hPa] vv [km]
24.06.2018 15:00:00 27,0 14,0 15 8 WSW - 10
24.06.2018 14:00:00 26,0 14,0 8 4 - - 10
24.06.2018 13:00:00 23,0 15,0 8 4 - - 10
24.06.2018 12:00:00 21,0 15,0 8 4 W - 10
24.06.2018 11:00:00 20,0 15,0 5 3 - - 10
24.06.2018 10:00:00 18,0 14,3 9 5 W 1016,3 8
24.06.2018 09:00:00 17,0 14,0 11 6 WSW - 6
24.06.2018 08:00:00 17,0 14,0 15 8 WSW - 6
24.06.2018 07:00:00 16,1 14,1 11 6 WSW 1015,2 8
24.06.2018 06:00:00 17,0 14,0 11 6 WSW - 10
24.06.2018 05:00:00 17,0 14,0 13 7 WSW - 10
24.06.2018 04:00:00 17,7 14,0 13 7 WSW 1013,8 10
24.06.2018 03:00:00 19,0 14,0 13 7 WSW - 10
24.06.2018 02:00:00 19,0 14,0 13 7 SW - 10
24.06.2018 01:00:00 20,9 14,5 11 6 WSW 1013,8 10
24.06.2018 00:00:00 23,0 15,0 5 3 NNE - 10
23.06.2018 23:00:00 24,0 15,0 11 6 NNE - 10
23.06.2018 22:00:00 25,2 14,9 15 8 NNW 1012,2 10
23.06.2018 21:00:00 27,0 15,0 21 11 N - 10
23.06.2018 20:00:00 31,0 13,0 8 4 N - 10
23.06.2018 19:00:00 32,0 13,2 8 4 WNW 1009,1 10
23.06.2018 18:00:00 32,0 13,0 8 4 NNW - 10
23.06.2018 17:00:00 32,0 13,0 11 6 W - 10
23.06.2018 16:00:00 30,8 13,1 8 4 N 1009,6 10
23.06.2018 15:00:00 29,0 13,0 8 4 NW - 10
23.06.2018 14:00:00 28,0 14,0 4 2 - - 10
23.06.2018 13:00:00 26,9 14,0 5 3 - 1012,0 10
23.06.2018 12:00:00 25,0 14,0 8 4 NW - 10
23.06.2018 11:00:00 23,0 15,0 9 5 WNW - 10
23.06.2018 10:00:00 21,6 14,7 9 5 W 1013,8 10
23.06.2018 09:00:00 20,0 15,0 9 5 W - 10
23.06.2018 08:00:00 17,0 14,0 8 4 WSW - 10
23.06.2018 07:00:00 16,2 13,9 5 3 WSW 1014,4 10
23.06.2018 06:00:00 17,0 14,0 8 4 WSW - 10
23.06.2018 05:00:00 17,0 14,0 9 5 WSW - 10
23.06.2018 04:00:00 17,8 13,9 13 7 SW 1013,9 10
23.06.2018 03:00:00 19,0 14,0 11 6 SW - 10
23.06.2018 02:00:00 20,0 14,0 11 6 SW - 10
23.06.2018 01:00:00 21,6 13,0 5 3 NE 1014,1 10
23.06.2018 00:00:00 23,0 13,0 5 3 NNE - 10
22.06.2018 23:00:00 24,0 14,0 13 7 N - 10
22.06.2018 22:00:00 26,0 13,2 16 9 NNE 1012,5 10
22.06.2018 21:00:00 28,0 12,0 16 9 N - 10
22.06.2018 20:00:00 30,0 12,0 15 8 NW - 10
22.06.2018 19:00:00 30,2 11,7 9 5 NE 1010,5 10
22.06.2018 18:00:00 31,0 13,0 8 4 - - 10
22.06.2018 17:00:00 30,0 13,0 11 6 WNW - 10
22.06.2018 16:00:00 29,9 14,0 11 6 - 1011,0 10
22.06.2018 15:00:00 28,0 14,0 8 4 - - 10
22.06.2018 14:00:00 27,0 15,0 11 6 NE - 10
22.06.2018 13:00:00 26,0 14,8 5 3 - 1013,4 10
22.06.2018 12:00:00 24,0 15,0 8 4 NNW - 10
22.06.2018 11:00:00 23,0 15,0 0 0 N - 10
22.06.2018 10:00:00 20,1 14,9 5 3 SW 1015,4 8
22.06.2018 09:00:00 19,0 15,0 4 2 - - 8
22.06.2018 08:00:00 17,0 15,0 4 2 - - 8
22.06.2018 07:00:00 16,2 14,4 8 4 SW 1015,8 8
22.06.2018 06:00:00 16,0 14,0 9 5 SW - 9
22.06.2018 05:00:00 16,0 14,0 9 5 SW - 9
22.06.2018 04:00:00 16,9 14,4 11 6 SW 1015,6 10
22.06.2018 03:00:00 17,0 14,0 8 4 WSW - 10
22.06.2018 02:00:00 19,0 14,0 9 5 WSW - 10
22.06.2018 01:00:00 19,2 14,2 9 5 W 1016,6 10
22.06.2018 00:00:00 20,0 14,0 9 5 NNE - 10
21.06.2018 23:00:00 22,0 14,0 18 10 NNE - 10
21.06.2018 22:00:00 24,3 13,5 18 10 NNE 1014,4 10
21.06.2018 21:00:00 26,0 13,0 11 6 N - 10
21.06.2018 20:00:00 27,0 13,0 11 6 W - 10
21.06.2018 19:00:00 27,7 13,6 11 6 WSW 1012,9 10
21.06.2018 18:00:00 27,0 14,0 8 4 SSW - 10
21.06.2018 17:00:00 27,0 14,0 8 4 - - 10
21.06.2018 16:00:00 26,1 14,2 5 3 - 1014,2 10
21.06.2018 15:00:00 24,0 14,0 11 6 WNW - 10
21.06.2018 14:00:00 22,0 15,0 8 4 WNW - 10
21.06.2018 13:00:00 19,3 14,3 8 4 WSW 1016,9 7
21.06.2018 12:00:00 19,0 15,0 8 4 WSW - 7
21.06.2018 11:00:00 18,0 15,0 9 5 SW - 5
21.06.2018 10:00:00 - - - - - - -
21.06.2018 09:00:00 18,0 15,0 5 3 W - 5
21.06.2018 08:00:00 17,0 15,0 9 5 WSW - 5
21.06.2018 07:00:00 16,5 14,3 9 5 WSW 1016,1 5
21.06.2018 06:00:00 16,0 14,0 11 6 SW - 10
21.06.2018 05:00:00 17,0 14,0 13 7 SW - 10
21.06.2018 04:00:00 17,2 14,1 11 6 SW 1015,6 10
21.06.2018 03:00:00 18,0 14,0 11 6 SW - 10
21.06.2018 02:00:00 18,0 14,0 13 7 SW - 10
21.06.2018 01:00:00 18,8 14,3 13 7 SW 1016,1 10
21.06.2018 00:00:00 20,0 14,0 16 9 SW - 10
20.06.2018 23:00:00 23,0 15,0 18 10 W - 10
20.06.2018 22:00:00 25,4 14,2 11 6 N 1013,7 10
20.06.2018 21:00:00 28,0 13,0 16 9 NW - 10
20.06.2018 20:00:00 29,0 12,0 13 7 NNW - 10
20.06.2018 19:00:00 30,7 11,1 16 9 NNW 1010,9 10
20.06.2018 18:00:00 32,0 11,0 15 8 NW - 10
20.06.2018 17:00:00 32,0 12,0 15 8 W - 10
20.06.2018 16:00:00 31,2 12,1 11 6 - 1010,9 10
20.06.2018 15:00:00 30,0 13,0 13 7 W - 10
20.06.2018 14:00:00 29,0 14,0 11 6 NW - 10
20.06.2018 13:00:00 27,6 14,6 9 5 NW 1013,3 10
20.06.2018 12:00:00 26,0 15,0 11 6 NW - 10
20.06.2018 11:00:00 23,0 15,0 5 3 NW - 10
20.06.2018 10:00:00 20,7 14,1 9 5 W 1015,7 10
20.06.2018 09:00:00 19,0 14,0 8 4 WSW - 10
20.06.2018 08:00:00 17,0 13,0 15 8 WSW - 10
20.06.2018 07:00:00 16,3 12,7 9 5 SW 1016,0 10
20.06.2018 06:00:00 17,0 13,0 13 7 W - 10
20.06.2018 05:00:00 18,0 13,0 8 4 W - 10
20.06.2018 04:00:00 18,3 12,5 0 0 N 1014,4 10
20.06.2018 03:00:00 19,0 13,0 9 5 SW - 10
20.06.2018 02:00:00 19,0 12,0 9 5 SW - 10
20.06.2018 01:00:00 20,9 12,1 11 6 WSW 1015,8 10
20.06.2018 00:00:00 21,0 12,0 11 6 WSW - 10
19.06.2018 23:00:00 23,0 12,0 13 7 SW - 10
19.06.2018 22:00:00 25,9 12,4 11 6 WNW 1014,1 10
19.06.2018 21:00:00 28,0 11,0 13 7 NW - 10
19.06.2018 20:00:00 30,0 10,0 18 10 NNW - 10
19.06.2018 19:00:00 32,5 11,6 15 8 NW 1010,8 10
19.06.2018 18:00:00 33,0 11,0 18 10 W - 10
19.06.2018 17:00:00 34,0 11,0 15 8 WNW - 10
19.06.2018 16:00:00 33,3 11,8 18 10 W 1010,7 10
19.06.2018 15:00:00 33,0 13,0 21 11 W - 10
19.06.2018 14:00:00 33,0 12,0 18 10 W - 10
19.06.2018 13:00:00 31,8 9,9 5 3 - 1012,0 10
19.06.2018 12:00:00 31,0 8,0 11 6 N - 10
19.06.2018 11:00:00 28,0 10,0 5 3 NNW - 10
19.06.2018 10:00:00 24,8 14,0 8 4 WNW 1014,4 10
19.06.2018 09:00:00 23,0 15,0 2 1 - - 10
19.06.2018 08:00:00 21,0 14,0 5 3 WSW - 10
19.06.2018 07:00:00 18,6 13,5 4 2 W 1015,3 10
19.06.2018 06:00:00 17,0 13,0 2 1 WSW - 10
19.06.2018 05:00:00 19,0 13,0 9 5 WSW - 10
19.06.2018 04:00:00 20,1 13,1 5 3 W 1014,5 10
19.06.2018 03:00:00 22,0 12,0 5 3 NNE - 10
19.06.2018 02:00:00 22,0 14,0 0 0 N - 10
19.06.2018 01:00:00 22,9 13,1 4 2 WSW 1015,5 10
19.06.2018 00:00:00 24,0 13,0 8 4 WSW - 10
18.06.2018 23:00:00 26,0 12,0 8 4 - - 10
18.06.2018 22:00:00 28,0 12,8 9 5 NNE 1015,3 10
18.06.2018 21:00:00 29,0 13,0 15 8 NNW - 10
18.06.2018 20:00:00 30,0 12,0 18 10 N - 10
18.06.2018 19:00:00 32,8 10,2 24 13 W 1012,7 10
18.06.2018 18:00:00 34,0 10,0 15 8 W - 10
18.06.2018 17:00:00 34,0 11,0 5 3 - - 10
18.06.2018 16:00:00 32,4 12,6 9 5 NW 1013,2 10
18.06.2018 15:00:00 32,0 13,0 11 6 NW - 10

tt = temperature
td = dewpoint
ff = wind speed
dd = wind direction
ppp = reduced air pressure
vv = visibility

Next stations